Vorticity
28 8 4 5 4 6 2 1 4 3 5 2 3 4 3 9 10 6 8 8 6 5 5 4 4 5 5 6 6 6 6 6 7 7 7 7 9 8 5 5 4 4 4
19 15 6 5 6 3 2 2 3 3 3 3 4 3 8 8 5 7 7 6 5 5 5 5 4 4 5 5 5 7 9 9 8 6 5 14 2 4 11 8 5 3 5
18 13 5 4 6 1 2 3 4 3 5 3 3 6 10 5 8 7 6 5 5 4 3 4 5 6 7 7 6 6 7 7 10 9 13 9 -3 3 12 9 7 5 4
21 7 5 4 6 1 0 2 4 3 4 3 4 12 5 7 8 5 5 5 4 3 3 3 3 3 3 5 5 5 5 6 6 6 14 3 16 8 10 5 8 9 4
7 8 5 2 3 3 3 2 4 6 1 3 10 8 5 7 5 4 6 3 2 3 3 2 3 5 5 5 5 6 6 6 6 8 3 5 6 10 12 12 6 7 8
8 7 5 9 7 3 1 4 4 2 2 8 12 5 8 6 4 4 4 3 3 2 3 5 4 4 4 5 5 5 6 3 3 4 7 5 2 5 8 9 12 12 8
9 10 2 1 8 2 1 5 4 2 4 13 7 6 7 4 3 5 3 2 1 1 2 1 2 2 2 2 4 7 11 10 12 4 7 12 6 4 3 6 7 7 12
8 5 2 -9 14 -8 4 2 4 2 11 8 6 7 4 3 3 3 2 0 0 1 2 2 2 1 1 6 6 7 4 9 7 7 2 -5 1 5 7 7 2 5 5
16 34 35 -9 7 4 9 -1 3 7 11 9 6 7 3 3 2 2 1 -0 0 1 1 3 3 0 -0 -0 1 4 9 10 9 6 4 7 6 8 7 5 7 7 4
16 47 14 -0 28 2 -2 3 6 12 7 7 6 5 2 2 1 1 -0 1 1 -0 2 2 2 1 0 3 1 4 6 4 1 10 1 7 3 3 6 6 5 5 6
19 8 5 6 6 5 6 11 11 7 7 7 6 4 2 2 2 1 3 2 1 3 3 2 2 2 1 1 -2 0 7 4 4 5 5 6 2 3 5 5 5 5 5
6 4 4 1 2 5 2 12 6 6 9 8 7 4 3 2 2 4 5 2 2 3 0 2 5 2 0 1 1 3 8 5 3 3 6 4 4 4 5 4 3 5 7
-1 5 6 7 7 11 8 6 7 8 7 6 3 3 2 1 -1 1 0 2 2 11 3 -0 4 8 3 -1 4 7 8 3 2 -0 3 4 6 6 7 7 7 6 7
4 5 8 9 10 13 6 6 7 7 4 2 2 1 -0 3 6 9 7 7 -11 7 7 3 2 -9 -0 5 3 5 3 0 0 2 4 8 9 9 9 8 8 8 8
4 8 13 10 6 5 8 6 8 5 3 1 2 3 9 7 2 -8 10 13 2 14 17 24 7 -0 5 3 2 2 2 2 3 6 10 9 11 8 7 9 9 8 7
9 9 8 5 3 6 2 12 7 6 1 -2 4 0 -3 -4 2 5 15 0 35 13 7 -7 6 5 1 2 2 3 4 6 7 10 11 8 12 11 9 6 4 4 7
12 8 6 7 7 7 3 6 11 -25 8 9 1 -4 6 14 20 12 10 7 6 4 17 5 2 2 3 7 9 9 8 7 11 18 6 17 9 5 9 3 5 6 5
16 3 5 4 2 4 7 4 -10 13 12 13 24 17 12 12 4 11 8 3 1 2 2 3 4 4 5 5 7 9 8 7 8 5 13 6 10 20 0 -3 7 -4 6
9 7 5 3 3 2 2 23 12 12 11 6 10 9 8 7 4 4 6 1 1 2 3 3 5 7 8 9 8 10 6 8 11 11 16 15 21 19 10 5 -2 4 5
1 4 2 2 2 4 -3 10 8 7 8 9 9 7 9 7 5 4 6 5 2 2 5 7 7 8 7 7 8 10 9 8 6 14 8 3 -2 -3 1 10 7 8 -4
-0 6 3 2 3 2 6 9 7 9 5 10 7 3 2 4 4 8 7 6 8 9 8 10 8 8 9 9 10 10 7 7 9 4 6 14 16 14 9 7 -0 -2 -7
3 4 9 5 6 12 8 0 13 4 5 3 9 2 4 -1 -2 -2 5 7 7 9 10 7 8 8 7 10 10 8 8 7 6 10 13 4 16 3 -5 -3 20 21 16
8 -0 2 7 13 3 10 10 5 2 -2 -1 -4 -8 -2 3 6 6 7 9 13 9 9 8 10 7 9 9 9 9 8 6 7 6 10 13 20 20 12 20 15 10 18
-2 17 23 4 0 11 -1 6 7 3 4 7 4 7 -5 12 5 8 10 12 8 8 8 9 10 10 10 9 9 11 12 10 11 14 3 20 21 20 16 16 12 6 -3
13 29 -4 3 7 4 1 3 2 6 -1 1 15 11 -10 5 9 11 11 7 8 8 9 11 10 10 11 11 11 10 12 13 17 19 -1 23 14 24 33 8 6 16 15
17 6 1 6 5 -1 2 5 4 -1 6 13 14 -7 -15 2 12 7 8 6 8 10 11 12 9 9 9 14 16 16 17 12 7 18 19 14 12 10 13 6 5 6 16
Height
3150 3152 3155 3158 3160 3163 3165 3167 3169 3171 3173 3174 3175 3175 3175 3176 3175 3175 3175 3176 3175 3175 3174 3174 3174 3173 3173 3171 3172 3171 3170 3168 3168 3167 3166 3167 3167 3167 3167 3166 3165 3165 3164
3148 3152 3155 3158 3160 3161 3164 3166 3168 3170 3173 3174 3174 3175 3175 3175 3176 3176 3176 3176 3175 3175 3175 3175 3174 3174 3173 3172 3172 3171 3170 3168 3167 3166 3164 3166 3166 3166 3166 3165 3164 3164 3164
3149 3152 3154 3157 3159 3160 3163 3165 3167 3169 3172 3173 3174 3175 3175 3175 3176 3176 3176 3176 3176 3176 3175 3176 3177 3176 3175 3174 3173 3171 3171 3169 3168 3168 3163 3165 3162 3164 3164 3164 3162 3162 3162
3150 3153 3155 3157 3157 3160 3161 3164 3167 3169 3171 3173 3174 3174 3174 3176 3177 3177 3177 3177 3177 3177 3177 3178 3178 3177 3176 3175 3175 3172 3172 3170 3168 3167 3165 3163 3165 3163 3163 3162 3161 3161 3161
3146 3149 3152 3155 3156 3159 3160 3163 3166 3170 3171 3173 3174 3174 3175 3176 3178 3178 3179 3179 3178 3179 3178 3178 3178 3178 3177 3176 3176 3174 3172 3170 3167 3164 3168 3166 3165 3164 3162 3160 3159 3159 3158
3145 3149 3151 3152 3154 3158 3160 3162 3165 3169 3171 3173 3175 3175 3176 3177 3179 3178 3179 3179 3179 3179 3179 3179 3178 3179 3179 3177 3175 3175 3173 3171 3168 3164 3165 3166 3165 3163 3162 3160 3159 3158 3157
3143 3142 3146 3149 3152 3158 3159 3162 3165 3169 3170 3172 3174 3176 3176 3178 3179 3178 3179 3179 3179 3179 3179 3179 3177 3178 3176 3176 3174 3175 3172 3171 3168 3164 3163 3163 3163 3162 3160 3159 3158 3157 3156
3140 3138 3144 3146 3150 3150 3155 3163 3165 3167 3169 3172 3174 3176 3177 3178 3179 3178 3179 3179 3179 3179 3180 3178 3177 3177 3175 3174 3174 3173 3171 3171 3169 3165 3159 3160 3160 3160 3159 3158 3156 3155 3154
3138 3139 3142 3142 3153 3158 3162 3162 3165 3168 3170 3173 3174 3175 3177 3177 3179 3180 3179 3178 3178 3177 3178 3177 3176 3176 3173 3172 3172 3172 3169 3169 3167 3163 3160 3159 3157 3157 3156 3155 3153 3153 3152
3138 3137 3139 3146 3139 3160 3162 3163 3165 3167 3170 3172 3174 3176 3176 3178 3179 3180 3179 3179 3177 3177 3177 3175 3174 3173 3171 3170 3168 3168 3167 3167 3165 3161 3159 3157 3155 3154 3153 3152 3151 3150 3149
3139 3143 3144 3150 3156 3159 3161 3162 3165 3167 3169 3172 3174 3176 3177 3179 3179 3180 3180 3178 3178 3175 3175 3174 3172 3171 3169 3168 3166 3165 3163 3163 3162 3159 3159 3156 3154 3151 3150 3148 3147 3145 3145
3140 3147 3151 3156 3159 3161 3162 3163 3165 3167 3170 3173 3175 3176 3178 3180 3178 3179 3178 3177 3176 3173 3172 3171 3170 3167 3166 3165 3164 3162 3160 3160 3159 3155 3155 3152 3150 3148 3145 3144 3142 3140 3139
3146 3150 3155 3158 3159 3161 3162 3164 3166 3168 3171 3173 3175 3176 3178 3177 3177 3176 3175 3174 3174 3172 3169 3167 3166 3163 3161 3161 3158 3156 3155 3156 3153 3152 3149 3147 3144 3142 3140 3138 3137 3135 3133
3152 3153 3155 3156 3158 3161 3163 3164 3167 3169 3171 3173 3175 3176 3176 3175 3173 3172 3172 3170 3170 3167 3165 3164 3162 3160 3159 3156 3153 3151 3149 3148 3147 3144 3140 3141 3137 3134 3133 3131 3129 3128 3126
3154 3155 3156 3159 3161 3163 3164 3165 3168 3171 3172 3173 3174 3173 3171 3169 3170 3170 3169 3168 3166 3163 3161 3160 3159 3156 3155 3153 3149 3146 3144 3142 3140 3136 3133 3132 3130 3126 3123 3123 3121 3120 3119
3154 3155 3158 3161 3162 3163 3164 3167 3169 3169 3172 3172 3170 3170 3169 3167 3167 3165 3164 3163 3160 3158 3158 3156 3154 3152 3149 3146 3142 3139 3136 3135 3132 3130 3126 3122 3121 3119 3115 3112 3111 3111 3110
3155 3158 3160 3162 3163 3165 3165 3167 3167 3168 3168 3166 3166 3165 3165 3164 3162 3160 3159 3157 3157 3156 3154 3151 3149 3145 3142 3141 3138 3135 3131 3128 3126 3124 3121 3118 3112 3110 3106 3102 3100 3099 3100
3155 3158 3160 3161 3162 3164 3164 3165 3164 3165 3164 3163 3162 3161 3160 3159 3158 3156 3155 3154 3152 3149 3145 3143 3141 3139 3136 3133 3128 3125 3122 3121 3119 3116 3113 3111 3110 3105 3098 3095 3091 3088 3089
3155 3157 3158 3158 3160 3161 3161 3162 3162 3161 3160 3159 3159 3157 3157 3155 3155 3153 3151 3150 3148 3145 3141 3138 3136 3133 3130 3127 3124 3120 3114 3112 3112 3109 3107 3103 3101 3099 3094 3088 3083 3080 3076
3154 3155 3157 3157 3158 3158 3159 3159 3157 3157 3156 3156 3156 3155 3153 3153 3152 3150 3146 3146 3143 3140 3136 3133 3129 3126 3123 3118 3114 3111 3107 3104 3103 3101 3095 3092 3090 3088 3086 3081 3074 3070 3065
3152 3154 3156 3156 3157 3157 3156 3155 3154 3154 3154 3154 3153 3152 3151 3149 3148 3146 3144 3140 3137 3134 3130 3126 3122 3118 3115 3111 3106 3103 3098 3095 3094 3092 3088 3086 3083 3079 3076 3072 3065 3059 3054
3151 3152 3153 3154 3155 3154 3153 3152 3152 3151 3150 3150 3150 3149 3148 3146 3143 3141 3138 3134 3131 3126 3123 3119 3114 3109 3105 3102 3097 3093 3087 3085 3082 3078 3078 3076 3073 3070 3066 3062 3057 3050 3045
3147 3147 3149 3150 3151 3151 3152 3152 3150 3148 3147 3145 3144 3144 3142 3141 3139 3135 3130 3126 3123 3120 3116 3111 3107 3101 3096 3093 3090 3085 3078 3074 3067 3066 3063 3062 3059 3057 3054 3052 3048 3042 3037
3144 3145 3146 3146 3147 3148 3147 3148 3147 3145 3143 3143 3139 3138 3136 3133 3130 3127 3123 3120 3116 3111 3107 3102 3098 3093 3089 3084 3081 3077 3071 3065 3058 3051 3050 3047 3047 3045 3042 3040 3037 3033 3030
3140 3141 3142 3141 3144 3144 3144 3144 3142 3141 3138 3136 3135 3134 3131 3127 3123 3120 3116 3113 3109 3104 3099 3094 3089 3085 3081 3077 3070 3064 3059 3055 3051 3047 3039 3037 3035 3035 3034 3031 3027 3026 3024
3135 3136 3137 3138 3139 3139 3140 3139 3138 3136 3134 3132 3130 3128 3125 3121 3117 3113 3109 3104 3100 3096 3091 3085 3080 3075 3070 3064 3059 3053 3050 3045 3042 3037 3033 3029 3026 3025 3025 3022 3020 3018 3015